{"data":{"norad_id":60930,"epoch":"2026-05-24T21:38:36.148128Z","epoch_age_seconds":73628,"freshness":"FRESH","line1":"1 60930U 24155G   26144.90180727  .00000751  00000+0  11053-4 0  9992","line2":"2 60930  53.1584 325.4588 0000884  94.3001 265.8118 15.69706686100374","mean_motion":15.69706686,"eccentricity":8.84e-5,"inclination_deg":53.1584,"raan_deg":325.4588,"arg_perigee_deg":94.3001,"mean_anomaly_deg":265.8118,"bstar":1.1053e-5,"rev_number":10037,"period_min":91.736883893224,"perigee_km":359.14060584206,"apogee_km":360.33186182981,"semimajor_km":6737.8732338359,"source":"CELESTRAK","updated_at":"2026-05-25T13:38:19.318249Z"}}